Location: Mahannah Oil Field
(37.4664°N, 96.6003°W)
Time: 15:21:28
(UTC+00:00)

Vanguard 2 Rocket - Pass Details

Date: 29 January 2021
Orbit: 554 x 3325 km, 32.9° (Epoch: 06 March)

Event Time Altitude Azimuth Distance (km) Brightness Sun altitude
Rises 23:33:28 0° 274° (W) 6,344 12.5 1.8°
Reaches altitude 10° 23:38:22 10° 272° (W) 4,910 12.0 0.9°
Maximum altitude 23:50:41 59° 197° (SSW) 1,672 8.6 -1.4°
Drops below altitude 10° 23:57:32 10° 119° (ESE) 2,823 9.1 -2.7°
Sets 23:59:39 0° 115° (ESE) 3,536 9.5 -3.0°
